Location: Binningen
(47.7924°N, 8.7261°E)
Time: 07:09:20
(UTC+00:00)

Cosmos 2242 Rocket - Pass Details

Date: 17 May 2021
Orbit: 619 x 651 km, 82.5° (Epoch: 20 June)

Event Time Altitude Azimuth Distance (km) Brightness Sun altitude
Exits shadow 22:05:59 53° 149° (SSE) 775 3.6 -20.6°
Maximum altitude 22:06:48 66° 96° (E) 692 3.6 -20.6°
Drops below altitude 10° 22:11:16 10° 15° (NNE) 2,035 7.0 -20.8°
Sets 22:13:33 0° 12° (NNE) 2,954 8.1 -21.0°
